Location: Ingoldesthorpe
(52.8667°N, 0.5167°E)
Time: 00:06:25
(UTC+00:00)

SPOT 3 Rocket - Pass Details

Date: 19 May 2025
Orbit: 775 x 790 km, 98.5° (Epoch: 18 June)

Event Time Altitude Azimuth Distance (km) Brightness Sun altitude
Exits shadow 21:43:36 10° 183° (S) 2,303 5.5 -11.8°
Maximum altitude 21:48:33 52° 260° (W) 960 4.1 -12.2°
Drops below altitude 10° 21:53:35 10° 337° (NNW) 2,338 7.5 -12.6°
Sets 21:55:58 0° 342° (NNW) 3,270 8.6 -12.8°
